CAPE
0 0 0 0 0 0 0 0 0 0 0 0 0 0 0 0 0 0 0 0 0 0
0 0 0 0 0 0 0 0 0 0 0 0 0 0 0 0 0 0 0 0 0 0
0 0 0 0 0 0 0 0 0 0 0 0 0 0 0 0 0 0 0 0 0 0
0 0 0 0 0 0 0 0 0 0 0 0 0 0 0 0 0 0 0 0 0 0
0 0 0 0 0 0 0 0 0 0 0 0 0 0 0 0 0 0 0 0 0 0
0 0 0 0 0 0 0 0 0 0 0 0 0 0 0 0 0 0 0 0 0 0
0 0 0 0 0 0 0 0 0 0 0 0 0 0 0 0 0 0 0 0 0 0
0 0 0 0 0 0 0 0 0 0 0 0 0 0 0 0 0 0 0 0 0 0
0 2 2 0 0 0 0 0 0 0 0 0 0 0 0 0 0 0 0 0 0 0
1 0 0 0 2 1 0 0 0 0 0 0 0 0 0 0 0 0 0 0 0 0
0 0 2 0 0 0 0 0 0 0 0 0 0 0 0 0 0 0 0 0 0 0
0 0 0 0 0 0 0 0 0 0 0 0 0 0 0 0 0 0 0 0 0 0
0 0 0 0 0 0 0 0 0 0 0 0 0 0 0 0 0 0 0 0 0 1
0 0 0 0 0 0 0 0 0 0 0 0 0 0 0 0 0 0 0 1 0 0
CIN
-0 -0 -0 -0 -0 -0 -0 -0 -0 -0 -0 -0 -0 -0 -0 -0 -0 -2 -1 -0 -0 -0
-0 -0 -0 -0 -0 -0 -0 -0 -0 -0 -0 -0 -0 -0 -0 -0 -0 -0 -0 -0 -0 -0
-0 -0 -0 -0 -0 -0 -0 -0 -0 -0 -0 -0 -0 -0 -0 -0 -0 -0 -0 -0 -0 -0
-0 -0 -0 -0 -0 -0 -0 -0 -0 -0 -0 -0 -0 -0 -0 -0 -0 -0 -0 -0 -0 -0
-0 -0 -0 -0 -0 -0 -0 -0 -0 -0 -0 -0 -0 -0 -0 -0 -0 -0 -0 -0 -0 -0
-0 -0 -0 -0 -0 -0 -0 -0 -0 -0 -0 -0 -0 -0 -0 -0 -0 -0 -0 -0 -0 -0
-0 -0 -0 -0 -0 -0 -0 -2 -0 -0 -0 -0 -0 -0 -0 -0 -0 -0 -0 -0 -0 -0
-0 -0 -0 -0 -0 -0 -0 -0 -0 -0 -0 -0 -0 -0 -0 -0 -0 -0 -0 -0 -0 -0
-0 -0 -0 -0 -0 -0 -0 -0 -0 -0 -0 -0 -0 -0 -0 -0 -0 -0 -0 -0 -0 -0
-1 -0 -0 -0 -17 -15 -0 -0 -0 -0 -0 -0 -0 -0 -0 -0 -0 -0 -0 -0 -0 -0
-0 -9 -4 -0 -0 -0 -0 -0 -0 -0 -0 -0 -0 -0 -0 -0 -0 -0 -0 -0 -0 -0
-0 -0 -0 -0 -0 -0 -0 -0 -0 -0 -0 -0 -0 -0 -0 -0 -0 -0 -0 -0 -0 -0
-0 -0 -0 -0 -0 -0 -0 -0 -0 -0 -0 -0 -0 -0 -0 -0 -0 -0 -0 -0 -0 -0
-0 -0 -0 -0 -0 -0 -0 -0 -0 -0 -0 -0 -0 -0 -0 -0 -2 -0 -0 -0 -0 -0
Wind_Speed
43 42 41 41 42 41 36 31 27 22 19 19 20 23 25 29 33 34 35 36 33 34
45 46 44 41 38 35 29 24 22 20 21 23 25 27 27 29 30 31 32 33 36 36
50 45 40 35 34 29 24 21 21 22 25 29 29 27 24 26 28 32 35 36 38 39
49 42 37 32 28 23 21 21 23 26 30 27 23 23 26 30 33 35 36 37 41 42
46 39 33 28 25 22 22 23 26 25 23 22 24 28 31 33 35 38 41 41 40 41
44 35 30 27 24 22 22 24 24 24 24 25 27 30 32 35 37 38 38 39 40 40
40 32 28 26 25 23 24 26 27 27 26 27 30 32 34 36 37 37 37 38 39 40
34 30 28 28 29 28 27 24 26 26 29 31 34 36 37 35 36 37 39 40 40 40
32 30 28 26 23 21 23 24 25 29 32 35 34 33 34 35 36 38 40 40 40 38
30 28 26 25 23 24 27 28 31 32 33 35 35 36 37 37 37 37 37 37 37 36
29 27 26 24 26 28 29 30 32 34 35 35 36 38 39 38 35 35 35 33 33 42
27 27 27 28 29 30 32 33 33 33 34 37 39 39 38 36 34 34 33 38 37 36
28 28 29 30 30 30 31 33 32 35 36 39 40 37 36 36 33 32 39 38 37 36
29 30 30 30 30 31 33 33 36 38 38 38 37 36 36 36 33 36 38 39 38 33
Wind_Direction
330 329 327 325 324 322 322 324 327 328 325 321 314 311 308 304 305 302 301 302 303 302
333 329 326 326 327 327 329 329 330 330 326 323 318 315 311 310 309 305 304 302 302 302
330 329 328 328 329 330 331 331 330 327 324 321 317 314 311 309 308 306 305 305 304 304
331 330 330 328 331 333 333 331 327 326 323 322 320 317 314 312 310 309 308 307 306 304
333 332 331 332 332 332 330 331 329 329 330 328 323 319 316 313 312 310 309 308 307 306
333 332 331 333 335 335 334 336 335 332 329 327 324 321 318 316 314 313 312 311 309 308
332 332 332 335 339 341 337 333 331 330 330 328 325 322 320 318 317 316 315 314 311 309
338 340 339 335 335 336 335 333 333 332 329 327 324 322 321 321 319 317 316 314 312 310
340 341 341 340 340 340 338 337 335 331 329 327 327 327 325 322 321 319 318 316 315 313
341 341 342 339 338 337 335 334 331 331 330 329 329 327 326 324 323 322 320 319 318 317
342 343 344 345 342 339 336 334 332 331 331 332 331 329 327 326 326 324 323 323 321 304
348 344 343 341 339 337 335 334 334 334 335 333 330 331 331 331 330 328 328 316 315 318
348 346 342 340 339 340 339 336 336 335 335 333 332 334 334 333 333 331 309 308 317 323
347 344 344 343 343 340 338 337 335 334 336 336 336 336 336 334 334 311 297 305 319 334